Jordan, MT

11:46 PM MST on December 05, 2016 (GMT -0700)
Jordan

Weather History for KJDN - July, 2013

Change the Weather History Date:

Friday, July 12, 2013

  Actual Average Record
Temperature  
Mean Temperature 76 °F 70 °F  
Max Temperature 89 °F 85 °F 105 °F (2002)
Min Temperature 63 °F 54 °F 41 °F (1987)
Degree Days  
Heating Degree Days 0 1  
Month to date heating degree days 0 13  
Since 1 June heating degree days 95 138  
Since 1 July heating degree days 0 13  
Cooling Degree Days 11 5  
Month to date cooling degree days 99 53  
Year to date cooling degree days 159 107  
Since 1 June cooling degree days 147 101  
Growing Degree Days 26 (Base 50)    
Moisture  
Dew Point 49 °F    
Average Humidity 46    
Maximum Humidity 73    
Minimum Humidity 19    
Precipitation  
Precipitation 0.02 in 0.07 in 0.44 in (1988)
Month to date precipitation 0.88 0.99  
Year to date precipitation 11.90 7.85  
Snow  
Snow 0.00 in - - ()
Month to date snowfall 0.0  
Since 1 June snowfall 0.0  
Since 1 July snowfall 0.0  
Snow Depth 0.00 in    
Sea Level Pressure  
Sea Level Pressure 29.79 in    
Wind  
Wind Speed 9 mph (WNW)    
Max Wind Speed 32 mph    
Max Gust Speed 40 mph    
T = Trace of Precipitation, MM = Missing Value Source: NWS Daily Summary

Daily Weather History Graph

Daily Weather History Graph

Search for Another Location

Airport or City:

Trip Planner

Search our weather history database for the weather conditions in past years. The results will help you decide how hot, cold, wet, or windy it might be!

Date:

Astronomy

Jul. 12, 2013 Rise Set
Actual Time 5:24 AM MDT 9:02 PM MDT
Civil Twilight 4:45 AM MDT 9:41 PM MDT
Nautical Twilight 3:53 AM MDT 10:32 PM MDT
Astronomical Twilight 2:40 AM MDT 11:44 PM MDT
Moon 10:05 AM MDT (7/12) 10:50 PM MDT (7/12)
Length of Visible Light 16h 55m
Length of Day
15h 38m
Waxing Crescent, 18% of the Moon is Illuminated
Jul 12
Waxing Crescent
Jul 15
First Quarter
Jul 22
Full
Jul 29
Last Quarter
Aug 6
New

Hourly Weather History & Observations

Time (MDT) Temp. Dew Point Humidity Pressure Visibility Wind Dir Wind Speed Gust Speed Precip Events Conditions
12:48 AM 75.0 °F 53.1 °F 46% 29.69 in - SSW 11.5 mph - N/A   Unknown
1:48 AM 75.0 °F 54.0 °F 48% 29.69 in - SSW 10.4 mph - N/A   Unknown
2:48 AM 73.9 °F 52.0 °F 46% 29.71 in - WSW 11.5 mph - N/A   Unknown
3:48 AM 70.0 °F 53.1 °F 55% 29.73 in - West 8.1 mph - N/A   Unknown
4:48 AM 66.9 °F 53.1 °F 61% 29.73 in - West 4.6 mph - N/A   Unknown
5:48 AM 66.0 °F 51.1 °F 59% 29.75 in - West 8.1 mph - N/A   Unknown
6:48 AM 64.9 °F 51.1 °F 61% 29.78 in - West 6.9 mph - N/A   Unknown
7:48 AM 66.9 °F 53.1 °F 61% 29.79 in - West 4.6 mph - N/A   Unknown
8:48 AM 77.0 °F 50.0 °F 39% 29.78 in - West 12.7 mph - N/A   Unknown
9:48 AM 79.0 °F 48.9 °F 35% 29.78 in - WNW 10.4 mph - N/A   Unknown
10:48 AM 79.0 °F 48.0 °F 34% 29.80 in - WNW 11.5 mph - N/A   Unknown
11:48 AM 81.0 °F 41.0 °F 24% 29.81 in - NW 9.2 mph - N/A   Unknown
12:48 PM 84.9 °F 39.9 °F 20% 29.81 in - WNW 13.8 mph - N/A   Unknown
1:48 PM 86.0 °F 41.0 °F 20% 29.80 in - NW 8.1 mph - N/A   Unknown
2:48 PM 86.0 °F 39.9 °F 20% 29.80 in - SE 4.6 mph - N/A   Unknown
3:48 PM 87.1 °F 42.1 °F 21% 29.79 in - South 4.6 mph - N/A   Unknown
4:48 PM 88.0 °F 41.0 °F 19% 29.78 in - Variable 3.5 mph - N/A   Unknown
5:48 PM 88.0 °F 43.0 °F 21% 29.77 in - East 4.6 mph - N/A   Unknown
6:48 PM 87.1 °F 43.0 °F 21% 29.75 in - East 10.4 mph - N/A   Unknown
7:48 PM 80.1 °F 48.0 °F 32% 29.82 in - North 6.9 mph - N/A   Unknown
8:16 PM 71.6 °F 55.4 °F 57% 29.89 in - NNW 19.6 mph 29.9 mph N/A   Unknown
8:48 PM 72.0 °F 54.0 °F 53% 29.82 in - NNE 12.7 mph - N/A   Unknown
9:48 PM 71.1 °F 53.1 °F 53% 29.82 in - NNE 9.2 mph - N/A   Unknown
10:48 PM 71.1 °F 54.0 °F 55% 29.86 in - North 15.0 mph - N/A   Unknown
11:48 PM 66.9 °F 57.0 °F 70% 29.90 in - NNW 10.4 mph - N/A   Unknown